Dauntless Aviation
Airports Europe France
LFIY

Saint Jean d'Angely

FRANCE

Airport Info
Suggest Updated Information for this Airport

Location

Latitude / Longitude: 45°57'59"N / 0°31'31"W
  45°57.984'N / 0°31.518'W
  45.9664 / -0.5253

Runway Information

Runway 10 /28

Dimensions: 2789 x 164 ft.
Surface: U
 
Runway 10
Runway 28
Latitude: 45.966636 45.965728
Longitude: -0.528086 -0.518369
Elevation: 243 ft. 243 ft.
Runway true heading: 95.7 275.7
 

Instrument Procedures

IAPs (Instrument Approach Procedures)

  Visual Approach Chart
Satellite photo at:
Airport distance calculator
From:
Weather Reports

METAR

LFBG
20.0nm SE
LFBG 092300Z AUTO 07003KT 8000 NSC 05/05 Q1029
LFBH
27.2nm W
LFBH 092300Z AUTO 16008KT 8000 NSC 08/07 Q1028 BECMG 3000 BR
LFBU
34.5nm E
LFBU 092300Z AUTO 15004KT CAVOK 07/03 Q1029

TAF

LFBG
20.0nm SE
TAF LFBG 091400Z 0915/1015 15006KT CAVOK TEMPO 1001/1003 3000 BR PROB30 TEMPO 1005/1008 0800 FG
LFBH
27.2nm W
TAF LFBH 091700Z 0918/1018 14007KT CAVOK BECMG 0923/1001 3000 BR SCT005 TEMPO 1001/1010 0500 FG VV/// BECMG 1010/1012 7000 NSW OVC004 BECMG 1012/1014 NSC
LFBU
34.5nm E
TAF LFBU 091700Z 0918/1018 15007KT CAVOK PROB30 1002/1008 VRB02KT 3000 BR
Safelog

 

Dauntless Aviation

© 2007-2016 Dauntless Aviation, all rights reserved
Information provided via PilotNav comes from a variety of official and unofficial data sources. As errors are possible, do not use PilotNav for primary flight planning purposes. Verify any information that you receive via PilotNav with current and canonical charts and other official documents. The material in this database is subject to database copyrights held by Dauntless Aviation and may not be copied without the express permission of Dauntless Aviation - licenses for use of part of all of this data are available for purchase; enquire via the Dauntless Aviation helpdesk. A number of mechanisms and markers exist in the database to protect against and identify infringement / copyright. Automated queries against this website are stictly prohibited, and all activity is logged and analyzed.